Regional Weather Roundup
Issued by NWS

Home | Current Version | Previous Version | Graphics & Text | Print | Product List | Glossary On
Versions: 1 2 3 4 5 6 7 8 9 10 11 12 13 14 15 16 17 18 19 20 21 22 23 24 25 26 27 28 29 30 31 32 33 34 35 36 37 38 39 40 41 42 43 44 45 46 47 48 49 50
000
ASUS45 KCYS 311610
RWRWY

WYOMING REGIONAL WEATHER ROUNDUP
NATIONAL WEATHER SERVICE CHEYENNE WY
1000 AM MDT SUN AUG 31 2014

NOTE:  "FAIR" INDICATES FEW OR NO CLOUDS BELOW 12,000 FEET
WITH NO SIGNIFICANT WEATHER AND/OR OBSTRUCTIONS TO VISIBILITY.

WYZ001-311700-
YELLOWSTONE NATIONAL PARK

CITY           SKY/WX    TMP DP  RH WIND       PRES   REMARKS
LK YELLOWSTONE   N/A     41  39  93 W3        30.08R
W YELLOWSTONE  NOT AVBL

$$
WYZ002>013-054>058-071-098>099-311700-
NORTHERN WYOMING

CITY           SKY/WX    TMP DP  RH WIND       PRES   REMARKS
JACKSON        SHOWER    45  43  93 N6        30.06R
CODY           CLOUDY    52  48  87 W6        29.94R
GREYBULL       RAIN      55  53  93 N9        29.88R FOG
WORLAND        PTSUNNY   59  49  69 N14       29.88R
SHERIDAN       CLOUDY    60  50  69 N6        29.86R
BUFFALO        CLOUDY    59  44  57 N16G26    29.89R
GILLETTE       CLOUDY    59  52  77 CALM      29.84S
HULETT         CLOUDY    61  52  72 MISG      29.84
NEWCASTLE      FAIR      63  48  59 SW6       29.85

$$
WYZ014>020-022>026-101>103-311700-
CENTRAL WYOMING

CITY           SKY/WX    TMP DP  RH WIND       PRES   REMARKS
BIG PINEY      CLOUDY    56  38  50 NW9       30.06R
PINEDALE       PTSUNNY   52  43  71 CALM      30.06R
DUBOIS         RAIN      45  37  76 N20G26    30.00R
LANDER         MOSUNNY   62  42  47 VRB3      29.91R
RIVERTON       PTSUNNY   59  48  67 VRB3      29.92R
CASPER         PTSUNNY   64  47  53 SW20G28   29.89R
DOUGLAS        MOSUNNY   60  53  77 S5        29.88S

$$
WYZ021-027>030-104>119-311700-
SOUTHERN WYOMING

CITY           SKY/WX    TMP DP  RH WIND       PRES   REMARKS
EVANSTON       MOSUNNY   55  43  63 W17       30.11R
KEMMERER       MOSUNNY   54  43  66 W18G26    30.09R
FORT BRIDGER   FAIR      57  47  69 SW16G22   30.11R
ROCK SPRINGS   PTSUNNY   52  45  77 SW20      30.06S
DIXON          CLOUDY    53  45  73 N9        30.14R
RAWLINS        LGT RAIN  50  44  80 SW23      30.05S
SARATOGA       RAIN      48  45  87 W14       30.12R
LARAMIE        CLOUDY    53  44  71 SW16      30.04R
CHEYENNE       CLOUDY    56  46  69 W8        29.97F
TORRINGTON     CLOUDY    61  57  87 S7        29.88F
PINE BLUFFS    CLOUDY    59  50  72 W6        29.97R

$$



USA.gov is the U.S. government's official web portal to all federal, state and local government web resources and services.